Location: Malvern Link
(52.1333°N, 2.3000°W)
Time: 03:44:11
(UTC+00:00)

Cosmos 1634 Rocket - Pass Details

Date: 03 December 2021
Orbit: 959 x 993 km, 82.9° (Epoch: 21 January)

Event Time Altitude Azimuth Distance (km) Brightness Sun altitude
Rises 07:05:35 0° 338° (NNW) 3,710 6.6 -7.7°
Reaches altitude 10° 07:09:38 10° 313° (NW) 2,748 5.7 -7.2°
Maximum altitude 07:12:19 13° 287° (WNW) 2,518 5.5 -6.8°
Drops below altitude 10° 07:14:59 10° 261° (W) 2,730 5.9 -6.5°
Sets 07:19:00 0° 236° (SW) 3,663 6.7 -5.9°
